Change the Weather History Date:

Friday, February 8, 2013

  Actual Average Record
Temperature  
Mean Temperature 24 °F -  
Max Temperature 28 °F 24 °F 58 °F (1991)
Min Temperature 21 °F 4 °F -28 °F (1971)
Degree Days  
Heating Degree Days 40    
Moisture  
Dew Point 20 °F    
Average Humidity 78    
Maximum Humidity 86    
Minimum Humidity 69    
Precipitation  
Precipitation 0.00 in - - ()
Sea Level Pressure  
Sea Level Pressure 30.26 in    
Wind  
Wind Speed 6 mph (SSE)    
Max Wind Speed 23 mph    
Max Gust Speed 30 mph    
Visibility 10 miles    
Events      
Averages and records for this station are not official NWS values.
T = Trace of Precipitation, MM = Missing Value Source: NWS Daily Summary

Daily Weather History Graph

Daily Weather History Graph

Search for Another Location

Airport or City:

Trip Planner

Search our weather history database for the weather conditions in past years. The results will help you decide how hot, cold, wet, or windy it might be!

Date:

Astronomy

Feb. 08, 2013 Rise Set
Actual Time 7:27 AM CST 5:37 PM CST
Civil Twilight 6:56 AM CST 6:08 PM CST
Nautical Twilight 6:22 AM CST 6:42 PM CST
Astronomical Twilight 5:48 AM CST 7:16 PM CST
Moon 5:58 AM CST (2/8) 4:11 PM CST (2/8)
Length of Visible Light 11h 11m
Length of Day
10h 10m
Waning Crescent, 3% of the Moon is Illuminated
Feb 8
Waning Crescent
Feb 10
New
Feb 17
First Quarter
Feb 25
Full
Mar 4
Last Quarter

Hourly Weather History & Observations

Time (CST) Temp. Windchill Dew Point Humidity Pressure Visibility Wind Dir Wind Speed Gust Speed Precip Events Conditions
12:13 AM 26.6 °F 21.2 °F 19.4 °F 74% 30.25 in 10.0 mi North 4.6 mph - N/A   Overcast
12:33 AM 24.8 °F 19.1 °F 19.4 °F 80% 30.26 in 10.0 mi North 4.6 mph - N/A   Overcast
12:53 AM 26.6 °F 19.1 °F 19.4 °F 74% 30.26 in 10.0 mi NNE 6.9 mph - N/A   Overcast
1:13 AM 26.6 °F - 19.4 °F 74% 30.27 in 10.0 mi Calm Calm - N/A   Overcast
1:33 AM 24.8 °F 17.9 °F 19.4 °F 80% 30.28 in 10.0 mi NNW 5.8 mph - N/A   Overcast
1:53 AM 24.8 °F 19.1 °F 19.4 °F 80% 30.28 in 10.0 mi NNW 4.6 mph - N/A   Overcast
2:13 AM 24.8 °F - 19.4 °F 80% 30.28 in 10.0 mi Calm Calm - N/A   Overcast
2:33 AM 24.8 °F - 17.6 °F 74% 30.28 in 10.0 mi Calm Calm - N/A   Overcast
2:53 AM 24.8 °F 20.5 °F 17.6 °F 74% 30.27 in 10.0 mi NNE 3.5 mph - N/A   Overcast
3:13 AM 24.8 °F - 17.6 °F 74% 30.27 in 10.0 mi Calm Calm - N/A   Overcast
3:33 AM 24.8 °F - 17.6 °F 74% 30.27 in 10.0 mi Calm Calm - N/A   Mostly Cloudy
3:53 AM 24.8 °F - 17.6 °F 74% 30.28 in 10.0 mi Calm Calm - N/A   Overcast
4:13 AM 24.8 °F - 17.6 °F 74% 30.28 in 10.0 mi Calm Calm - N/A   Overcast
4:33 AM 24.8 °F - 17.6 °F 74% 30.29 in 10.0 mi Calm Calm - N/A   Overcast
4:53 AM 24.8 °F - 17.6 °F 74% 30.30 in 10.0 mi Calm Calm - N/A   Overcast
5:12 AM 24.8 °F 20.5 °F 17.6 °F 74% 30.30 in 10.0 mi NW 3.5 mph - N/A   Overcast
5:53 AM 24.8 °F - 17.6 °F 74% 30.30 in 10.0 mi Calm Calm - N/A   Overcast
6:12 AM 24.8 °F - 17.6 °F 74% 30.30 in 10.0 mi Calm Calm - N/A   Overcast
6:33 AM 24.8 °F - 17.6 °F 74% 30.30 in 10.0 mi Calm Calm - N/A   Overcast
6:53 AM 23.0 °F - 17.6 °F 80% 30.30 in 10.0 mi Calm Calm - N/A   Overcast
7:12 AM 23.0 °F - 17.6 °F 80% 30.31 in 10.0 mi Calm Calm - N/A   Overcast
7:33 AM 23.0 °F - 17.6 °F 80% 30.32 in 10.0 mi Calm Calm - N/A   Overcast
7:53 AM 23.0 °F - 17.6 °F 80% 30.32 in 10.0 mi Calm Calm - N/A   Overcast
8:12 AM 21.2 °F - 17.6 °F 86% 30.32 in 10.0 mi Calm Calm - N/A   Overcast
8:33 AM 23.0 °F - 17.6 °F 80% 30.32 in 10.0 mi Calm Calm - N/A   Overcast
8:53 AM 23.0 °F - 17.6 °F 80% 30.33 in 10.0 mi Calm Calm - N/A   Overcast
9:12 AM 23.0 °F - 17.6 °F 80% 30.32 in 10.0 mi Calm Calm - N/A   Mostly Cloudy
9:33 AM 24.8 °F - 19.4 °F 80% 30.33 in 10.0 mi Calm Calm - N/A   Mostly Cloudy
9:53 AM 24.8 °F - 19.4 °F 80% 30.32 in 10.0 mi Calm Calm - N/A   Scattered Clouds
10:13 AM 26.6 °F 18.2 °F 17.6 °F 69% 30.32 in 10.0 mi ESE 8.1 mph - N/A   Scattered Clouds
10:57 AM 26.6 °F 18.2 °F 19.4 °F 74% 30.33 in 10.0 mi South 8.1 mph - N/A   Scattered Clouds
11:13 AM 26.6 °F 18.2 °F 19.4 °F 74% 30.33 in 10.0 mi SE 8.1 mph - N/A   Scattered Clouds
11:33 AM 26.6 °F 17.5 °F 19.4 °F 74% 30.33 in 10.0 mi SE 9.2 mph - N/A   Scattered Clouds
11:53 AM 26.6 °F 20.0 °F 19.4 °F 74% 30.33 in 10.0 mi South 5.8 mph - N/A   Clear
12:13 PM 26.6 °F 18.2 °F 19.4 °F 74% 30.33 in 10.0 mi SSE 8.1 mph - N/A   Clear
12:33 PM 26.6 °F 18.2 °F 19.4 °F 74% 30.31 in 10.0 mi SE 8.1 mph - N/A   Clear
12:52 PM 26.6 °F 18.2 °F 19.4 °F 74% 30.30 in 10.0 mi SE 8.1 mph - N/A   Clear
1:13 PM 26.6 °F 16.8 °F 19.4 °F 74% 30.29 in 10.0 mi SSE 10.4 mph - N/A   Clear
1:33 PM 26.6 °F 17.5 °F 19.4 °F 74% 30.29 in 10.0 mi SSE 9.2 mph - N/A   Clear
1:52 PM 28.4 °F 19.7 °F 21.2 °F 74% 30.29 in 10.0 mi South 9.2 mph - N/A   Clear
2:13 PM 28.4 °F 19.1 °F 21.2 °F 74% 30.28 in 10.0 mi SSE 10.4 mph - N/A   Clear
2:33 PM 28.4 °F 19.1 °F 21.2 °F 74% 30.28 in 10.0 mi SSE 10.4 mph - N/A   Clear
2:52 PM 28.4 °F 18.5 °F 21.2 °F 74% 30.26 in 10.0 mi SSE 11.5 mph - N/A   Clear
3:13 PM 28.4 °F 18.0 °F 21.2 °F 74% 30.26 in 10.0 mi SSE 12.7 mph - N/A   Clear
3:33 PM 28.4 °F 19.1 °F 21.2 °F 74% 30.26 in 10.0 mi SSE 10.4 mph - N/A   Scattered Clouds
3:52 PM 28.4 °F 19.1 °F 21.2 °F 74% 30.25 in 10.0 mi SSE 10.4 mph - N/A   Scattered Clouds
4:13 PM 28.4 °F 19.7 °F 21.2 °F 74% 30.24 in 10.0 mi SE 9.2 mph - N/A   Scattered Clouds
4:33 PM 28.4 °F 18.0 °F 21.2 °F 74% 30.23 in 10.0 mi SSE 12.7 mph 17.3 mph N/A   Mostly Cloudy
4:52 PM 28.4 °F 19.1 °F 21.2 °F 74% 30.22 in 10.0 mi SSE 10.4 mph - N/A   Overcast
5:13 PM 26.6 °F 15.7 °F 21.2 °F 80% 30.22 in 10.0 mi SSE 12.7 mph - N/A   Overcast
5:33 PM 26.6 °F 14.7 °F 21.2 °F 80% 30.21 in 10.0 mi SSE 15.0 mph - N/A   Overcast
5:53 PM 26.6 °F 16.2 °F 21.2 °F 80% 30.21 in 10.0 mi SSE 11.5 mph - N/A   Overcast
6:13 PM 26.6 °F 14.3 °F 21.2 °F 80% 30.21 in 10.0 mi SE 16.1 mph - N/A   Overcast
6:33 PM 26.6 °F 16.2 °F 21.2 °F 80% 30.21 in 10.0 mi SSE 11.5 mph - N/A   Overcast
6:53 PM 26.6 °F 16.2 °F 21.2 °F 80% 30.20 in 10.0 mi SSE 11.5 mph - N/A   Overcast
7:13 PM 26.6 °F 14.7 °F 21.2 °F 80% 30.19 in 10.0 mi SSE 15.0 mph 19.6 mph N/A   Overcast
7:53 PM 26.6 °F 14.7 °F 21.2 °F 80% 30.19 in 10.0 mi SSE 15.0 mph - N/A   Overcast
8:13 PM 26.6 °F 13.1 °F 21.2 °F 80% 30.18 in 10.0 mi SSE 19.6 mph 23.0 mph N/A   Overcast
8:32 PM 26.6 °F 13.8 °F 21.2 °F 80% 30.18 in 10.0 mi SSE 17.3 mph - N/A   Overcast
8:53 PM 26.6 °F 13.8 °F 23.0 °F 86% 30.18 in 10.0 mi SSE 17.3 mph - N/A   Overcast
9:13 PM 26.6 °F 13.8 °F 23.0 °F 86% 30.17 in 10.0 mi SSE 17.3 mph - N/A   Overcast
9:32 PM 26.6 °F 13.1 °F 23.0 °F 86% 30.17 in 10.0 mi SSE 19.6 mph 27.6 mph N/A   Mostly Cloudy
9:53 PM 26.6 °F 13.1 °F 23.0 °F 86% 30.17 in 10.0 mi SSE 19.6 mph - N/A   Mostly Cloudy
10:13 PM 26.6 °F 12.0 °F 23.0 °F 86% 30.16 in 10.0 mi SSE 23.0 mph - N/A   Mostly Cloudy
10:32 PM 26.6 °F 13.1 °F 23.0 °F 86% 30.17 in 10.0 mi SSE 19.6 mph - N/A   Mostly Cloudy
10:53 PM 26.6 °F 13.4 °F 23.0 °F 86% 30.16 in 10.0 mi SSE 18.4 mph 29.9 mph N/A   Mostly Cloudy
11:13 PM 26.6 °F 13.1 °F 23.0 °F 86% 30.16 in 10.0 mi South 19.6 mph - N/A   Mostly Cloudy
11:32 PM 26.6 °F 12.7 °F 23.0 °F 86% 30.16 in 10.0 mi South 20.7 mph 25.3 mph N/A   Mostly Cloudy
11:53 PM 26.6 °F 13.4 °F 23.0 °F 86% 30.16 in 10.0 mi South 18.4 mph - N/A   Mostly Cloudy